Weather History for 16531 - November, 2013

Change the Weather History Date:

Monday, November 25, 2013

  Actual Average Record
Temperature  
Mean Temperature 52 °F -  
Max Temperature 59 °F 57 °F - ()
Min Temperature 44 °F 43 °F - ()
Degree Days  
Heating Degree Days 14    
Growing Degree Days 2 (Base 50)    
Moisture  
Dew Point 43 °F    
Average Humidity 76    
Maximum Humidity 100    
Minimum Humidity 43    
Precipitation  
Precipitation 0.00 in 0.12 in - ()
Sea Level Pressure  
Sea Level Pressure 29.89 in    
Wind  
Wind Speed 8 mph ()    
Max Wind Speed 17 mph    
Max Gust Speed -    
Visibility 6.2 miles    
Events Rain , Thunderstorm    
T = Trace of Precipitation, MM = Missing Value Source: Averaged Metar Reports

Daily Weather History Graph

Daily Weather History Graph

Search for Another Location

Airport or City:

Trip Planner

Search our weather history database for the weather conditions in past years. The results will help you decide how hot, cold, wet, or windy it might be!

Date:

Astronomy

Nov. 25, 2013 Rise Set
Actual Time 7:20 AM CET 4:56 PM CET
Civil Twilight 6:50 AM CET 5:27 PM CET
Nautical Twilight 6:16 AM CET 6:00 PM CET
Astronomical Twilight 5:43 AM CET 6:33 PM CET
Moon No Moon Rise 12:28 PM CET
Length of Visible Light 10h 36m
Length of Day
9h 36m
Waning Gibbous, 53% of the Moon is Illuminated
Nov 25
Waning Gibbous
Nov 25
Last Quarter
Dec 3
New
Dec 9
First Quarter
Dec 17
Full

Hourly Weather History & Observations

Time (CET) Temp. Windchill Dew Point Humidity Pressure Visibility Wind Dir Wind Speed Gust Speed Precip Events Conditions
12:20 AM 46.4 °F 41.9 °F 44.6 °F 93% 29.80 in 6.2 mi West 9.2 mph - N/A   Partly Cloudy
12:50 AM 46.4 °F 41.9 °F 44.6 °F 93% 29.80 in 6.2 mi West 9.2 mph - N/A   Partly Cloudy
1:20 AM 46.4 °F 43.5 °F 44.6 °F 93% 29.80 in 6.2 mi West 5.8 mph - N/A   Partly Cloudy
1:50 AM 48.2 °F - 44.6 °F 87% 29.80 in 6.2 mi NW 4.6 mph - N/A Rain Rain
2:20 AM 46.4 °F 41.9 °F 44.6 °F 93% 29.80 in 6.2 mi West 9.2 mph - N/A   Partly Cloudy
2:50 AM 46.4 °F 42.4 °F 44.6 °F 93% 29.80 in 6.2 mi West 8.1 mph - N/A   Partly Cloudy
3:20 AM 46.4 °F 42.4 °F 44.6 °F 93% 29.80 in 6.2 mi West 8.1 mph - N/A   Scattered Clouds
3:50 AM 46.4 °F 44.3 °F 44.6 °F 93% 29.80 in 6.2 mi West 4.6 mph - N/A Rain Rain
4:20 AM 46.4 °F 42.9 °F 44.6 °F 93% 29.80 in 6.2 mi West 6.9 mph - N/A Rain Light Rain
4:50 AM 46.4 °F 42.9 °F 44.6 °F 93% 29.80 in 6.2 mi SW 6.9 mph - N/A Rain Light Rain
5:20 AM 44.6 °F 39.7 °F 42.8 °F 93% 29.80 in 6.2 mi WSW 9.2 mph - N/A   Partly Cloudy
5:50 AM 46.4 °F 41.1 °F 44.6 °F 93% 29.80 in 6.2 mi West 11.5 mph - N/A   Scattered Clouds
6:20 AM 46.4 °F 42.9 °F 44.6 °F 93% 29.83 in 6.2 mi WSW 6.9 mph - N/A   Mostly Cloudy
6:50 AM 46.4 °F 42.9 °F 46.4 °F 100% 29.83 in 6.2 mi WNW 6.9 mph - N/A Rain Rain
7:20 AM 46.4 °F 44.3 °F 44.6 °F 93% 29.83 in 6.2 mi SW 4.6 mph - N/A   Mostly Cloudy
7:50 AM 44.6 °F 39.7 °F 42.8 °F 93% 29.86 in 6.2 mi WSW 9.2 mph - N/A   Scattered Clouds
11:20 AM 50.0 °F - 48.2 °F 94% 29.86 in 6.2 mi SW 6.9 mph - N/A Rain Light Rain
11:50 AM 51.8 °F - 50.0 °F 94% 29.86 in 6.2 mi SW 6.9 mph - N/A   Scattered Clouds
12:20 PM 55.4 °F - 50.0 °F 82% 29.86 in 6.2 mi SSW 5.8 mph - N/A   Partly Cloudy
12:50 PM 59.0 °F - 48.2 °F 67% 29.86 in 6.2 mi Variable 4.6 mph - N/A   Partly Cloudy
1:20 PM 59.0 °F - 44.6 °F 59% 29.86 in 6.2 mi NNW 9.2 mph - N/A   Partly Cloudy
1:50 PM 57.2 °F - 44.6 °F 63% 29.86 in 6.2 mi NNW 10.4 mph - N/A   Partly Cloudy
2:20 PM 59.0 °F - 44.6 °F 59% 29.86 in 6.2 mi NNW 8.1 mph - N/A   Scattered Clouds
2:50 PM 59.0 °F - 44.6 °F 59% 29.86 in 6.2 mi NNW 10.4 mph - N/A   Scattered Clouds
3:20 PM 57.2 °F - 44.6 °F 63% 29.86 in 6.2 mi NNW 8.1 mph - N/A   Scattered Clouds
3:50 PM 57.2 °F - 46.4 °F 67% 29.86 in 6.2 mi NW 4.6 mph - N/A   Scattered Clouds
4:20 PM 55.4 °F - 44.6 °F 67% 29.89 in 6.2 mi North 8.1 mph - N/A   Scattered Clouds
4:50 PM 53.6 °F - 44.6 °F 72% 29.89 in 6.2 mi North 6.9 mph - N/A   Scattered Clouds
5:20 PM 50.0 °F - 44.6 °F 82% 29.92 in 6.2 mi North 17.3 mph - N/A Thunderstorm Thunderstorm
5:50 PM 50.0 °F - 46.4 °F 87% 29.95 in 6.2 mi NNE 15.0 mph - N/A   Mostly Cloudy
6:20 PM 50.0 °F - 44.6 °F 82% 29.95 in 6.2 mi NNW 11.5 mph - N/A   Light Drizzle
6:50 PM 51.8 °F - 42.8 °F 71% 29.95 in 6.2 mi NNW 8.1 mph - N/A   Mostly Cloudy
7:20 PM 51.8 °F - 44.6 °F 76% 29.98 in 6.2 mi North 12.7 mph - N/A   Mostly Cloudy
7:50 PM 51.8 °F - 41.0 °F 67% 29.98 in 6.2 mi NNE 15.0 mph - N/A   Mostly Cloudy
8:20 PM 51.8 °F - 37.4 °F 58% 30.01 in 6.2 mi NNE 13.8 mph - N/A   Mostly Cloudy
8:50 PM 51.8 °F - 35.6 °F 54% 30.01 in 6.2 mi NNE 16.1 mph - N/A   Mostly Cloudy
9:20 PM 50.0 °F - 33.8 °F 54% 30.01 in 6.2 mi NNE 16.1 mph - N/A   Mostly Cloudy
9:50 PM 50.0 °F - 32.0 °F 50% 30.01 in 6.2 mi NNE 13.8 mph - N/A   Mostly Cloudy
10:20 PM 50.0 °F - 30.2 °F 47% 30.04 in 6.2 mi NNE 11.5 mph - N/A   Mostly Cloudy
10:50 PM 50.0 °F - 30.2 °F 47% 30.04 in 6.2 mi NNE 13.8 mph - N/A   Scattered Clouds
11:20 PM 48.2 °F - 28.4 °F 46% 30.04 in 6.2 mi NNE 11.5 mph - N/A   Scattered Clouds
11:50 PM 48.2 °F - 26.6 °F 43% 30.04 in 6.2 mi North 11.5 mph - N/A   Scattered Clouds